Theta_e
279 280 281 282 283 284 285 286 287 288 291 293 293 294 294 294 294 295 296 296 297 297 297 298 299 300 302 304 305 307 311 312 312 313 313 311 311 311 311 311 309 308
278 280 281 280 280 281 282 284 286 287 290 293 295 294 294 294 294 295 295 295 296 296 297 297 298 299 300 302 303 304 308 311 311 311 313 311 311 311 310 310 309 308
277 277 278 278 278 279 280 281 281 283 287 292 295 295 293 293 293 294 295 295 295 295 296 296 296 297 299 301 303 304 306 309 310 312 310 311 311 310 310 310 309 307
276 277 277 277 278 278 279 279 280 282 284 285 290 293 293 293 293 293 294 293 294 294 294 295 295 296 298 300 301 303 304 306 310 311 310 310 309 310 310 310 308 308
275 275 276 277 277 278 278 279 280 281 282 284 286 291 291 291 291 292 292 292 293 293 293 293 294 294 295 297 300 301 303 304 307 310 310 309 309 308 309 309 307 307
275 275 276 277 277 276 277 278 280 282 283 283 285 286 288 291 291 291 291 291 292 292 292 292 292 293 294 296 298 300 302 303 305 309 310 309 308 308 309 308 307 306
273 273 274 276 276 276 276 277 278 281 283 283 284 284 285 286 290 291 291 291 291 291 291 291 291 291 293 294 296 298 300 301 303 307 309 309 307 307 308 307 306 306
273 273 273 274 274 275 276 277 278 279 280 281 281 283 285 285 287 291 290 290 290 291 291 291 291 292 292 293 295 296 298 300 302 304 308 308 308 307 306 307 306 305
273 272 273 273 273 274 275 276 277 278 279 279 280 282 283 284 285 288 290 290 290 290 291 291 291 291 291 293 294 295 297 299 301 302 306 307 307 307 306 307 305 304
272 272 272 273 273 274 274 275 276 277 278 278 279 280 280 281 283 284 287 289 289 289 290 290 290 290 291 291 293 294 296 298 300 301 304 308 307 307 307 306 305 304
271 272 271 272 272 273 273 274 275 276 277 277 278 278 279 279 280 282 284 287 289 289 290 290 290 290 291 291 292 293 294 297 299 301 303 307 308 307 304 306 306 305
271 271 271 271 271 272 273 273 274 275 275 276 276 277 278 278 279 280 282 283 286 288 289 289 290 290 290 290 291 292 293 295 299 301 303 306 308 307 306 306 306 305
270 270 270 270 271 271 272 272 273 273 274 274 276 276 276 277 278 279 280 281 283 287 288 289 289 290 290 290 290 291 292 294 297 300 303 306 308 308 307 307 307 306
270 270 270 270 270 271 271 271 272 272 273 273 275 275 275 276 276 277 278 280 282 286 288 288 289 289 289 290 290 290 291 293 297 299 302 305 307 308 308 307 307 307
270 270 270 270 270 270 269 270 270 271 271 272 273 274 275 275 276 277 278 278 280 284 286 287 288 289 290 290 289 290 291 292 296 299 301 304 307 307 308 307 307 307
269 269 269 269 269 268 268 269 269 270 270 271 272 273 274 275 276 277 277 278 279 281 285 287 288 289 289 290 291 290 290 291 293 297 301 304 305 306 306 306 307 307
268 268 268 268 268 268 268 268 268 269 269 270 271 273 274 275 276 276 277 278 279 280 281 284 286 288 290 291 292 292 291 291 292 295 299 303 304 305 304 304 306 306
267 267 267 267 267 267 267 268 268 268 269 270 271 272 274 275 275 276 277 278 279 280 282 283 285 288 290 291 291 292 291 290 291 293 296 301 303 305 305 304 305 305
267 266 266 266 266 266 267 267 267 268 268 269 270 272 274 275 275 276 277 278 278 279 280 283 285 288 290 291 291 291 291 291 290 292 294 297 302 304 305 305 304 304
266 266 265 265 265 266 266 266 266 267 268 268 269 271 273 275 276 276 277 277 278 278 280 282 284 287 289 290 291 291 291 291 290 291 294 297 301 303 304 304 304 304
265 264 264 264 264 265 265 265 265 266 266 267 268 270 272 274 276 276 277 278 278 278 279 281 283 287 289 290 290 291 291 291 290 292 294 297 301 303 303 304 304 305
264 264 263 264 264 264 264 264 265 265 266 267 268 269 271 275 277 278 278 278 280 280 280 281 282 286 288 289 290 291 291 290 289 290 293 296 299 301 302 303 303 303
263 263 263 263 263 263 263 264 264 265 266 268 268 269 270 273 276 278 279 280 280 282 282 282 283 285 287 289 290 291 290 289 289 290 293 296 299 300 301 301 301 302
263 263 262 262 263 263 263 264 265 266 267 268 268 268 270 274 277 278 279 280 281 282 283 283 284 286 288 289 290 291 290 289 289 291 292 294 297 299 300 300 299 296
263 262 262 262 262 263 264 264 265 266 267 268 268 269 270 272 276 279 280 281 281 282 284 285 285 286 288 290 290 291 291 290 291 292 293 294 296 297 297 299 298 296
262 262 262 262 262 263 264 265 266 267 267 267 268 269 270 274 276 277 278 279 281 283 285 286 286 287 288 291 291 292 293 291 292 292 293 294 296 297 296 296 296 297
Wind_Speed
18 18 18 17 16 16 17 17 17 19 19 16 11 7 7 7 5 6 8 7 6 5 5 7 8 8 8 9 12 15 13 16 16 14 16 16 17 19 19 20 17 17
21 19 16 18 17 16 19 19 19 19 20 19 14 8 7 6 6 6 7 7 6 5 5 6 7 7 8 8 10 14 15 13 17 14 17 20 17 19 21 22 19 17
19 20 20 20 19 19 17 16 15 16 18 22 16 10 7 6 7 6 7 7 6 6 5 6 6 6 7 9 10 11 13 13 14 15 15 19 16 18 17 20 17 20
18 20 19 20 19 19 19 18 17 13 15 17 21 14 7 7 6 7 6 6 6 6 5 5 5 5 6 8 9 10 11 13 12 14 14 13 16 17 18 18 17 17
21 21 19 17 17 19 20 19 19 16 16 15 16 19 11 8 7 7 7 6 5 6 5 5 4 4 6 7 9 10 10 11 13 13 13 14 14 15 16 17 18 19
19 20 22 18 17 18 19 20 20 18 16 15 15 14 17 14 9 8 7 7 6 6 5 5 4 3 4 7 8 9 9 9 13 14 16 16 15 16 13 15 18 19
20 19 22 20 19 18 18 18 20 20 15 13 13 14 13 16 15 12 8 7 7 6 6 5 5 3 3 6 8 10 9 9 12 15 15 16 16 16 17 18 19 19
19 19 19 19 21 20 19 18 18 18 17 17 16 14 12 13 16 15 12 7 7 7 6 6 5 4 2 3 8 10 10 8 9 15 15 15 15 19 18 17 19 20
20 17 19 20 20 18 19 18 16 17 17 18 17 14 13 11 14 16 17 10 8 8 7 5 5 4 3 3 6 10 12 10 10 13 17 15 17 19 20 19 20 19
18 19 20 20 19 16 19 19 17 16 16 16 15 15 16 14 13 16 17 14 10 9 7 5 4 3 4 3 5 8 12 13 11 12 16 15 16 16 19 20 20 19
20 19 19 20 19 18 20 20 19 18 15 17 16 15 14 14 14 14 16 16 14 11 9 6 4 3 4 5 6 7 11 13 12 12 16 18 17 17 17 19 20 21
19 21 20 20 20 19 19 18 19 18 19 17 17 18 17 14 13 13 13 16 16 13 11 9 6 5 5 5 7 8 10 12 12 13 16 19 17 17 18 19 18 18
22 20 19 18 18 19 18 18 18 19 19 20 18 18 18 16 14 15 15 15 16 15 14 12 10 7 6 6 7 8 11 13 13 13 16 18 17 18 19 20 21 21
19 18 20 20 17 18 18 18 19 19 20 20 19 20 18 17 16 15 15 14 15 14 13 11 10 10 8 7 7 8 10 13 13 13 15 18 18 19 20 20 19 20
17 21 16 19 21 19 19 19 18 18 19 20 19 17 15 16 12 14 17 17 16 16 14 12 12 11 8 7 7 8 9 13 14 13 15 17 19 19 19 20 20 21
24 17 21 19 19 19 19 19 18 18 18 18 18 16 17 16 15 14 16 17 17 17 15 13 11 10 10 14 12 10 10 12 14 14 14 16 17 18 19 20 21 19
17 22 17 18 19 21 19 18 19 17 17 18 18 18 17 17 14 15 17 15 17 15 16 15 13 11 16 16 16 18 13 12 13 14 14 15 16 18 17 18 18 20
22 17 18 19 18 18 19 18 17 17 18 18 17 18 17 15 17 15 14 15 15 15 14 14 13 15 20 18 17 18 17 13 12 13 13 13 13 17 17 17 18 18
14 19 20 20 18 18 17 17 17 17 17 17 17 17 16 16 16 15 15 14 15 17 16 15 13 15 19 19 18 19 20 18 12 13 13 13 13 15 18 18 18 18
21 20 19 19 18 18 18 18 18 17 16 17 17 17 17 17 15 16 15 14 15 16 16 15 15 15 20 20 20 20 21 19 14 14 14 14 14 15 16 17 19 19
19 22 22 21 19 18 18 18 18 18 17 16 16 16 16 16 14 15 14 15 16 16 16 16 14 19 20 20 21 21 22 20 14 14 13 13 14 16 17 18 19 20
19 21 20 22 21 19 17 18 18 17 17 15 16 15 15 15 14 13 13 14 15 15 16 17 15 21 23 22 23 22 23 15 13 14 14 13 13 14 16 17 17 17
20 21 22 22 21 20 19 17 17 17 15 13 14 15 15 16 15 12 13 13 15 15 16 15 15 18 23 24 24 24 19 13 13 13 13 13 13 13 14 15 15 18
24 23 22 22 20 19 20 19 16 14 14 13 14 14 16 15 13 12 12 12 14 15 15 15 14 16 22 23 24 24 20 14 13 12 12 12 12 12 11 13 16 22
18 20 21 22 22 21 18 18 17 15 13 12 13 13 14 15 16 13 12 12 12 14 20 20 16 16 20 22 23 22 18 13 12 12 12 12 11 11 10 11 13 18
18 20 21 20 21 20 18 16 14 13 13 12 13 12 13 13 13 13 15 14 15 16 16 18 16 12 12 18 19 21 23 15 11 12 13 13 12 12 11 9 12 13
Wind_Direction
316 305 296 297 302 299 294 296 302 303 299 289 269 249 223 222 216 226 253 258 255 246 261 274 276 275 279 276 281 279 260 212 202 200 194 192 195 188 185 186 182 179
312 308 317 315 310 312 312 309 303 300 298 290 285 266 231 215 227 224 246 259 261 261 268 275 281 287 284 277 273 278 271 243 209 195 198 193 191 189 186 182 180 181
309 311 312 311 311 308 304 302 303 306 311 306 284 258 235 219 231 228 239 253 260 265 274 281 289 290 286 277 272 272 279 263 226 201 196 194 187 186 188 182 180 177
311 308 305 304 305 305 306 302 301 301 305 308 309 289 248 231 223 234 239 247 250 251 259 266 274 282 284 278 273 270 269 272 248 212 199 199 190 186 183 178 179 180
312 308 302 301 303 306 306 303 300 299 300 300 306 308 286 252 236 235 236 242 237 245 239 253 254 261 276 281 276 270 269 270 264 230 204 195 194 189 185 176 176 179
309 308 304 300 302 305 304 305 304 300 299 301 306 313 317 294 260 240 228 231 231 231 235 243 247 238 259 284 283 273 270 273 268 248 207 194 194 187 185 178 176 178
308 309 306 307 306 302 300 303 304 303 303 304 305 306 312 314 294 268 234 225 226 224 229 236 246 251 252 283 289 281 270 265 274 264 228 198 185 189 182 179 179 179
307 305 303 304 306 306 301 300 300 302 308 309 306 303 307 309 308 290 273 236 230 224 224 229 237 254 246 269 286 285 274 262 266 265 242 205 192 185 182 180 181 179
307 304 302 299 300 300 298 298 298 302 306 304 303 303 303 307 309 306 289 265 243 233 221 219 225 246 253 263 286 288 282 271 259 260 251 213 193 187 184 182 181 181
305 305 301 302 300 298 298 299 299 298 298 301 303 305 303 303 304 303 302 295 276 260 241 220 222 231 262 265 281 287 286 276 265 259 254 225 195 190 186 180 180 179
306 304 303 299 298 297 297 298 300 300 299 298 301 299 297 298 297 296 296 296 286 270 266 254 234 241 265 282 284 284 284 279 268 259 253 234 201 184 183 181 180 179
303 304 301 300 297 296 295 296 296 296 300 299 298 297 297 298 294 294 291 292 294 288 279 273 265 251 260 274 287 290 287 280 270 256 251 236 205 186 179 184 178 179
306 303 301 297 297 295 295 295 295 296 295 295 296 293 294 297 299 294 290 289 287 286 279 274 272 266 267 273 281 286 285 282 273 259 249 234 209 187 182 184 180 177
303 298 298 296 294 292 294 294 294 293 293 293 292 291 290 290 294 293 289 286 284 281 277 275 271 270 266 271 275 279 284 280 273 264 253 235 211 191 184 184 183 181
302 301 293 295 292 290 289 290 289 288 288 290 289 287 285 284 284 284 283 281 278 275 275 269 265 263 264 266 274 278 282 286 281 268 254 235 211 193 184 184 184 184
307 300 298 293 292 288 288 287 285 284 282 281 280 278 278 278 279 275 274 275 275 271 267 266 263 262 262 262 262 268 277 283 282 276 263 238 210 191 184 182 183 186
302 302 293 294 293 291 289 285 283 282 280 278 277 274 272 276 272 268 273 272 271 266 262 260 259 259 259 260 263 267 272 278 281 277 270 247 214 190 183 183 184 185
304 300 297 296 295 291 288 287 283 281 277 274 273 271 266 264 268 266 265 268 268 265 257 254 255 253 255 257 259 263 268 272 277 276 270 259 224 194 182 181 183 184
297 299 298 298 298 296 291 286 282 279 278 278 276 275 269 260 261 262 261 261 263 265 262 257 253 248 249 252 254 259 265 269 275 274 266 262 235 204 185 180 179 180
307 303 296 294 293 292 290 288 285 280 279 280 280 279 274 267 259 257 260 259 260 262 262 260 253 247 247 248 251 254 259 264 270 269 266 259 242 210 187 183 182 179
301 300 295 293 292 289 288 284 281 279 276 275 274 273 272 265 257 256 255 255 256 257 257 256 252 246 246 246 248 250 255 262 265 268 263 256 241 214 190 184 184 185
305 301 298 295 293 290 285 283 279 274 273 270 271 269 271 270 260 257 258 258 259 255 251 251 251 246 245 245 246 248 252 256 261 262 260 251 236 216 191 183 182 182
303 302 297 294 293 291 288 285 282 278 274 270 269 268 265 266 267 258 258 260 261 256 250 250 249 245 242 242 242 244 245 248 253 256 252 246 231 213 190 178 178 179
301 298 296 294 291 287 286 282 276 275 273 271 269 272 275 273 257 253 252 252 256 259 253 252 250 244 240 237 236 237 235 240 244 247 245 236 227 211 195 177 177 181
301 300 299 296 291 284 279 278 274 271 268 266 264 266 266 266 266 265 266 263 261 260 257 250 247 244 237 235 233 231 231 235 240 241 237 227 212 205 195 179 176 179
300 297 291 285 282 282 278 270 265 267 262 260 259 259 263 268 270 268 264 262 260 258 251 240 238 237 236 238 237 236 235 236 235 233 227 216 203 195 189 185 176 180